Location: Haulchin
(50.3172°N, 3.4360°E)
Time: 20:00:33
(UTC+00:00)

Cosmos 2333 Rocket - Pass Details

Date: 11 August 2024
Orbit: 838 x 863 km, 70.8° (Epoch: 09 September)

Event Time Altitude Azimuth Distance (km) Brightness Sun altitude
Exits shadow 23:15:19 22° 100° (E) 1,793 3.7 -24.3°
Drops below altitude 10° 23:19:29 10° 53° (NE) 2,510 5.0 -24.4°
Sets 23:22:28 0° 39° (NE) 3,453 6.0 -24.5°
